This is the latest recevied weather packets stored in our database for station/object K4MGY-13. If no packets are shown the sender has not sent any weather packets the latest 1 day(s).
| Time | Temp. | Humidity | Pressure | Rain* | Wind** | Luminosity | Snow |
|---|---|---|---|---|---|---|---|
| 1777982859 | 15.56° C | 68% | 1012.2 hPa | 0 mm | 0.45 m/s, 164° | - | - |
| 1777982558 | 15.56° C | 69% | 1012.2 hPa | 0 mm | 0.89 m/s, 317° | - | - |
| 1777982258 | 15.56° C | 69% | 1011.9 hPa | 0 mm | 0.45 m/s, 150° | - | - |
| 1777981928 | 15° C | 69% | 1011.9 hPa | 0 mm | 0.89 m/s, 152° | - | - |
| 1777981601 | 15° C | 69% | 1011.9 hPa | 0 mm | 0.45 m/s, 150° | - | - |
| 1777981000 | 15° C | 68% | 1011.2 hPa | 0 mm | 0.45 m/s, 157° | - | - |
| 1777980668 | 15° C | 68% | 1011.5 hPa | 0 mm | 0.45 m/s, 164° | - | - |
| 1777980368 | 15° C | 68% | 1011.5 hPa | 0 mm | 0.45 m/s, 168° | - | - |
| 1777980038 | 15° C | 68% | 1011.5 hPa | 0 mm | 0.45 m/s, 147° | - | - |
| 1777979708 | 15.56° C | 67% | 1011.2 hPa | 0 mm | 0.45 m/s, 147° | - | - |
| 1777979078 | 15.56° C | 67% | 1011.5 hPa | 0 mm | 0.89 m/s, 152° | - | - |
| 1777978778 | 15.56° C | 67% | 1011.2 hPa | 0 mm | 0.45 m/s, 198° | - | - |
| 1777978448 | 15.56° C | 67% | 1011.2 hPa | 0 mm | 0.89 m/s, 63° | - | - |
| 1777977848 | 15.56° C | 66% | 1011.2 hPa | 0 mm | 0.45 m/s, 179° | - | - |
| 1777977548 | 15.56° C | 66% | 1011.2 hPa | 0 mm | 0.45 m/s, 171° | - | - |
| 1777977218 | 15.56° C | 66% | 1010.8 hPa | 0 mm | 1.34 m/s, 115° | - | - |
| 1777976888 | 15.56° C | 66% | 1010.8 hPa | 0 mm | 1.34 m/s, 212° | - | - |
| 1777976558 | 15.56° C | 66% | 1010.8 hPa | 0 mm | 1.34 m/s, 120° | - | - |
| 1777976228 | 15.56° C | 66% | 1010.8 hPa | 0 mm | 0.89 m/s, 164° | - | - |
| 1777975928 | 15.56° C | 66% | 1010.8 hPa | 0 mm | 0.89 m/s, 154° | - | - |
| 1777975628 | 15.56° C | 66% | 1010.8 hPa | 0 mm | 1.34 m/s, 209° | - | - |
| 1777975298 | 15.56° C | 65% | 1010.8 hPa | 0 mm | 0.89 m/s, 171° | - | - |
| 1777974999 | 15.56° C | 65% | 1010.8 hPa | 0 mm | 0.89 m/s, 176° | - | - |
| 1777974399 | 16.11° C | 65% | 1010.5 hPa | 0 mm | 0.89 m/s, 179° | - | - |
| 1777974068 | 16.11° C | 65% | 1010.8 hPa | 0 mm | 0.89 m/s, 178° | - | - |
* Rain latest hour (hover to see other rain measurements)
** Current wind speed in m/s (hover to see current wind gust speed)